Location: Bergfeld
(52.0500°N, 11.7833°E)
Time: 20:18:38
(UTC+00:00)

NOSS 0 Rocket - Pass Details

Date: 17 February 2020
Orbit: 937 x 953 km, 70.0° (Epoch: 30 March)

Event Time Altitude Azimuth Distance (km) Brightness Sun altitude
Exits shadow 03:24:38 69° 317° (NW) 1,020 3.9 -28.2°
Drops below altitude 10° 03:30:42 10° 30° (NNE) 2,685 6.8 -27.3°
Sets 03:33:16 0° 33° (NNE) 3,632 7.7 -26.9°
